HULIANWANG DIGUI-55

导读

HULIANWANG DIGUI-55是中国于2025年8月4日发射的卫星,从命名判断属于低轨互联网卫星星座组网卫星,该星座旨在构建全球覆盖的卫星互联网通信网络,可为全球各地用户提供全天候、无缝衔接的宽带互联网接入服务,助力偏远地区网络覆盖,补充地面通信基础设施,推动天地一体化信息网络建设。

Basic Information
目录编号:
65112
目录名称:
HULIANWANG DIGUI-55
国际标识:
2025-168G
轨道中心:
EARTH
卫星名称:
HULIANWANG DIGUI-55
卫星全名:
HULIANWANG DIGUI-55
卫星状态:
在轨 (已飞行357 天)
发射日期:
2025-08-04 UTC
国别 :
中国 (CN)
星等 :
--
Orbit Information
数据来源 国际轨道数据 AOE轨道数据
星历时间 2026-07-27T21:35:09+0800
9小时前
查看轨道信息
2026-07-28T00:00:00+0800
7小时前
查看轨道信息
半长轴 7527.454km 7527.457km
偏心率 0.0011666 0.0009597
轨道倾角 49.998° 49.982°
近地点辐角 216.922° 209.274°
升交点赤经 180.670° 180.311°
平近点角 143.085° 272.445°
近地点 1140.535km 1142.095km
远地点 1158.099km 1156.545km
周期 108.326分钟 108.326分钟
每日圈数 13.293235 13.293227
Detailed Information
使用方式:
暂无
2D Orbit Map
3D Orbit Map
Orbit Altitude Analysis Chart
Orbit Inclination Analysis Chart
Orbit Comprehensive Analysis Chart
View Comprehensive Chart